Location: Vancouver
(49.2500°N, 123.1330°W)
Time: 05:48:56
(UTC-07:00)

Oscar 11 - Visible Passes

Search period start: 29 August 2016 00:00
Search period end: 08 September 2016 00:00
Orbit: 613 x 627 km, 97.7° (Epoch: 28 August)

Date Brightness Start Highest point End Pass type
(mag) Time Alt. Az. Time Alt. Az. Time Alt. Az.
29 Aug 7.8 21:54:05 14° S 21:57:34 51° W 22:01:47 10° NNW visible
30 Aug 8.1 20:35:21 10° SE 20:39:01 28° ENE 20:42:43 10° N visible
30 Aug 8.5 22:11:50 14° SSW 22:15:04 34° W 22:19:02 10° NNW visible
31 Aug 7.6 20:52:23 10° SE 20:56:20 40° ENE 21:00:22 10° N visible
31 Aug 9.1 22:29:34 12° SW 22:32:37 24° W 22:36:07 10° NW visible
01 Sep 7.1 21:10:08 14° SSE 21:13:41 59° ENE 21:17:56 10° N visible
01 Sep 9.6 22:47:28 10° SW 22:50:13 16° W 22:52:58 10° NW visible
02 Sep 7.0 21:27:52 18° SSE 21:31:05 87° ENE 21:35:25 10° NNW visible
02 Sep 9.9 23:06:36 10° WSW 23:07:51 11° W 23:09:07 10° WNW visible
03 Sep 7.4 21:45:37 20° S 21:48:31 63° WSW 21:52:48 10° NNW visible
04 Sep 8.3 20:26:38 10° ESE 20:30:04 24° ENE 20:33:31 10° N visible
04 Sep 8.1 22:03:21 20° SSW 22:06:00 42° W 22:10:07 10° NNW visible
05 Sep 7.8 20:43:55 12° SE 20:47:21 33° ENE 20:51:15 10° N visible
05 Sep 8.8 22:21:06 17° SW 22:23:31 28° W 22:27:17 10° NW visible
06 Sep 7.3 21:01:40 17° SE 21:04:40 48° ENE 21:08:51 10° N visible
06 Sep 9.3 22:38:51 14° SW 22:41:06 20° W 22:44:16 10° NW visible
07 Sep 7.0 21:19:25 23° SSE 21:22:03 72° ENE 21:26:22 10° N visible
07 Sep 9.7 22:56:35 10° WSW 22:58:42 14° W 23:00:53 10° WNW visible
